{"data":{"norad_id":65313,"epoch":"2026-05-25T04:46:55.231104Z","epoch_age_seconds":71924,"freshness":"FRESH","line1":"1 65313U 25187J   26145.19925036 -.00000099  00000+0  52925-4 0  9999","line2":"2 65313  50.0076 288.2912 0000599  96.7742 263.3198 13.29323906 36658","mean_motion":13.29323906,"eccentricity":5.99e-5,"inclination_deg":50.0076,"raan_deg":288.2912,"arg_perigee_deg":96.7742,"mean_anomaly_deg":263.3198,"bstar":5.2925e-5,"rev_number":3665,"period_min":108.32574314661,"perigee_km":1148.8635825126,"apogee_km":1149.7653711995,"semimajor_km":7527.451476856,"source":"CELESTRAK","updated_at":"2026-05-25T13:38:05.321869Z"}}